EHI
0 0 0 0 0 0 0 0 0 0 0 0 0 0 0 0 0 0 0 0 0 0 0 0 0 0 0 0 0 0 0 0 0 0 0 0 0 0 0 0 0 0 0
0 0 0 0 0 0 0 0 0 0 0 0 0 0 0 0 0 0 0 0 0 0 0 0 0 0 0 0 0 0 0 0 0 0 0 0 0 0 0 0 0 0 0
0 0 0 0 0 0 0 0 0 0 0 0 0 0 0 0 0 0 0 0 0 0 0 0 0 0 0 0 0 0 0 0 0 0 0 0 0 0 0 0 0 0 0
0 0 0 0 0 0 0 0 0 0 0 0 0 0 0 0 0 0 0 0 0 0 0 0 0 0 0 0 0 0 0 0 0 0 0 0 0 0 0 0 0 0 0
0 0 0 0 0 0 0 0 0 0 0 0 0 0 0 0 0 0 0 0 0 0 0 0 0 0 0 0 0 0 0 0 0 0 0 0 0 0 0 0 0 0 0
0 0 0 0 0 0 0 0 0 0 0 0 0 0 0 0 0 0 0 0 0 0 0 0 0 0 0 0 0 0 0 0 0 0 0 0 0 0 0 0 0 0 0
0 0 0 0 0 0 0 0 0 0 0 0 0 0 0 0 0 0 0 0 0 0 0 0 0 0 0 0 0 0 0 0 0 0 0 0 0 0 0 0 0 0 0
0 0 0 0 0 0 0 0 0 0 0 0 0 0 0 0 0 0 0 0 0 0 0 0 0 0 0 0 0 0 0 0 0 0 0 0 0 0 0 0 0 0 0
0 0 0 0 0 0 0 0 0 0 0 0 0 0 0 0 0 0 0 0 0 0 0 0 0 0 0 0 0 0 0 0 0 0 0 0 0 0 0 0 0 0 0
0 0 0 0 0 0 0 0 0 0 0 0 0 0 0 0 0 0 0 0 0 0 0 0 0 0 0 0 0 0 0 0 0 0 0 0 0 0 0 0 0 0 0
0 0 0 0 0 0 0 0 0 0 0 0 0 0 0 0 0 0 0 0 0 0 0 0 0 0 0 0 0 0 0 0 0 0 0 0 0 0 0 0 0 0 0
0 0 0 0 0 0 0 0 0 0 0 0 0 0 0 0 0 0 0 0 0 0 0 0 0 0 0 0 0 0 0 0 0 0 0 0 0 0 0 0 0 0 0
0 0 0 0 0 0 0 0 0 0 0 0 0 0 0 0 0 0 0 0 0 0 0 0 0 0 0 0 0 0 0 0 0 0 0 0 0 0 0 0 0 0 0
0 0 0 0 0 0 0 0 0 0 0 0 0 0 0 0 0 0 0 0 0 0 0 0 0 0 0 0 0 0 0 0 0 0 0 0 0 0 0 0 0 0 0
0 0 0 0 0 0 0 0 0 0 0 0 0 0 0 0 0 0 0 0 0 0 0 0 0 0 0 0 0 0 0 0 0 0 0 0 0 0 0 0 0 0 0
0 0 0 0 0 0 0 0 0 0 0 0 0 0 0 0 0 0 0 0 0 0 0 0 0 0 0 0 0 0 0 0 0 0 0 0 0 0 0 0 0 0 0
0 0 0 0 0 0 0 0 0 0 0 0 0 0 0 0 0 0 0 0 0 0 0 0 0 0 0 0 0 0 0 0 0 0 0 0 0 0 0 0 0 0 0
0 0 0 0 0 0 0 0 0 0 0 0 0 0 0 0 0 0 0 0 0 0 0 0 0 0 0 0 0 0 0 0 0 0 0 0 0 0 0 0 0 0 0
0 0 0 0 0 0 0 0 0 0 0 0 0 0 0 0 0 0 0 0 0 0 0 0 0 0 0 0 0 0 0 0 0 0 0 0 0 0 0 0 0 0 0
0 0 0 0 0 0 0 0 0 0 0 0 0 0 0 0 0 0 0 0 0 0 0 0 0 0 0 0 0 0 0 0 0 0 0 0 0 0 0 0 0 0 0
0 0 0 0 0 0 0 0 0 0 0 0 0 0 0 0 0 0 0 0 0 0 0 0 0 0 0 0 0 0 0 0 0 0 0 0 0 0 0 0 0 0 0
0 0 0 0 0 0 0 0 0 0 0 0 0 0 0 0 0 0 0 0 0 0 0 0 0 0 0 0 0 0 0 0 0 0 0 0 0 0 0 0 0 0 0
0 0 0 0 0 0 0 0 0 0 0 0 0 0 0 0 0 0 0 0 0 0 0 0 0 0 0 0 0 0 0 0 0 0 0 0 0 0 0 0 0 0 0
0 0 0 0 0 0 0 0 0 0 0 0 0 0 0 0 0 0 0 0 0 0 0 0 0 0 0 0 0 0 0 0 0 0 0 0 0 0 0 0 0 0 0
0 0 0 0 0 0 0 0 0 0 0 0 0 0 0 0 0 0 0 0 0 0 0 0 0 0 0 0 0 0 0 0 0 0 0 0 0 0 0 0 0 0 0
0 0 0 0 0 0 0 0 0 0 0 0 0 0 0 0 0 0 0 0 0 0 0 0 0 0 0 0 0 0 0 0 0 0 0 0 0 0 0 0 0 0 0
Wind_Speed
4 5 6 5 5 4 5 5 4 4 4 6 7 9 10 10 9 7 4 4 3 3 4 2 1 1 2 3 5 5 3 3 6 3 2 2 4 6 6 6 7 6 8
5 5 6 6 6 6 6 6 4 4 5 6 7 7 9 9 8 8 7 7 5 6 7 6 5 6 6 5 4 4 3 4 6 6 2 3 5 5 6 6 6 6 6
7 6 6 7 7 7 7 6 5 4 4 5 5 4 7 7 7 8 8 9 8 7 7 6 3 4 4 4 2 4 5 6 5 8 5 4 5 4 5 5 5 5 5
8 8 8 9 9 9 7 6 6 4 4 4 4 3 4 4 6 6 7 7 6 7 4 2 2 3 2 3 4 7 8 8 7 8 7 4 5 4 4 3 4 3 5
8 8 9 10 8 8 8 7 6 5 4 3 1 1 2 3 3 4 4 4 3 6 3 3 4 6 5 4 6 8 9 8 7 7 6 5 3 3 4 2 2 2 3
8 8 8 7 8 9 9 8 7 6 5 4 3 2 1 0 2 3 0 1 2 4 1 5 7 9 12 14 16 14 10 9 7 5 5 5 3 3 3 2 2 2 1
9 8 7 7 6 6 7 7 8 8 6 6 5 5 4 3 4 4 1 2 3 1 4 5 5 4 7 9 12 14 13 11 7 6 6 4 3 2 3 2 2 2 2
10 8 6 6 7 5 4 7 8 7 8 8 8 8 6 6 6 5 5 4 4 5 5 4 5 3 4 7 9 9 9 8 7 5 6 4 3 3 2 3 2 2 2
11 9 5 5 6 5 5 6 8 6 7 7 8 9 8 8 10 11 9 5 4 6 4 3 4 4 4 7 10 10 9 8 10 13 12 11 10 7 3 2 2 2 2
10 10 7 6 5 5 5 5 7 7 8 8 8 9 9 9 12 15 12 7 6 4 4 4 5 6 7 6 11 10 10 5 6 7 8 10 10 11 10 6 3 3 2
9 8 9 7 6 5 5 5 5 7 7 8 8 8 8 9 10 15 16 9 8 6 5 4 4 8 9 10 9 7 8 6 7 8 8 7 7 8 8 7 6 5 4
9 9 11 9 6 5 5 4 5 7 10 9 8 6 6 7 10 14 15 13 11 9 6 5 5 9 11 11 9 10 10 7 6 7 6 6 6 6 5 6 7 7 6
10 11 11 10 6 6 6 5 4 7 8 9 9 8 7 6 6 10 11 14 12 8 7 8 8 10 11 9 9 9 7 6 6 6 5 4 3 3 3 3 5 5 5
11 12 10 8 8 6 6 6 5 6 6 7 8 8 8 7 6 7 7 9 10 8 9 9 9 7 7 6 5 5 5 5 5 5 5 4 3 3 3 3 3 4 4
11 10 8 6 7 7 7 6 5 4 4 6 8 10 12 11 11 12 13 11 9 11 10 6 5 5 5 4 4 4 5 5 5 4 5 5 5 4 3 2 2 3 4
10 9 7 5 5 6 6 5 7 8 10 5 6 13 12 13 17 17 17 17 18 16 8 7 6 6 6 6 6 4 4 5 4 5 5 5 5 4 3 2 2 2 3
11 10 8 6 5 6 5 4 3 5 7 10 16 18 14 14 20 19 17 18 18 14 8 8 7 7 7 6 6 5 5 4 5 5 5 5 4 4 3 2 2 2 2
11 11 9 6 6 5 5 5 4 6 3 4 9 11 15 16 19 19 19 15 10 8 9 9 8 8 7 7 7 6 6 6 5 5 5 5 4 3 2 2 1 2 2
12 8 7 5 6 5 5 5 5 6 5 4 6 6 7 7 14 21 19 13 13 11 9 9 8 9 8 8 7 7 8 8 7 6 5 5 4 4 3 2 2 2 2
9 10 7 5 5 5 4 5 5 4 6 5 8 9 11 10 9 10 10 10 11 10 9 8 8 8 8 8 8 8 8 8 8 6 6 5 5 4 4 4 3 3 2
4 5 6 5 5 6 5 5 5 6 8 9 9 11 18 15 13 13 11 10 11 10 10 9 9 9 8 8 8 9 10 9 9 8 7 6 6 5 4 4 4 3 3
6 6 6 6 5 6 6 6 6 8 6 8 8 12 18 13 11 12 12 11 10 10 10 10 9 9 9 10 10 10 10 10 9 9 8 7 7 6 6 6 5 5 4
4 4 5 4 5 6 6 5 7 6 6 8 9 11 11 10 10 11 11 11 10 9 9 9 9 9 8 8 9 10 11 11 10 10 9 8 8 8 7 7 7 7 7
3 4 5 5 6 6 6 6 7 5 8 10 10 11 11 11 11 11 10 10 9 9 9 8 8 10 10 9 8 9 9 9 10 10 12 10 9 9 8 8 8 9 9
5 6 6 6 7 7 6 7 7 7 9 10 9 10 10 10 9 9 9 9 9 9 9 9 8 9 12 13 12 12 11 11 10 10 10 10 11 11 10 10 10 10 10
5 6 6 5 6 6 5 6 6 9 9 9 8 9 10 9 9 9 9 9 8 8 9 8 10 12 13 11 13 13 12 12 11 12 10 10 10 10 11 11 13 11 11
Wind_Direction
262 229 219 212 218 232 248 262 270 284 297 311 320 323 328 335 348 351 350 321 294 322 327 305 21 342 227 187 153 133 125 111 115 83 40 64 80 96 97 78 66 61 50
281 254 242 226 218 228 245 261 270 281 302 310 316 332 338 345 360 14 34 37 19 28 30 42 50 42 27 52 81 96 111 107 123 124 101 77 81 89 94 87 76 62 51
313 279 253 240 230 230 234 255 269 280 298 309 314 346 339 355 26 36 46 46 47 46 36 40 33 67 23 37 67 100 105 94 97 108 97 71 82 87 93 80 61 52 52
323 298 268 248 234 230 228 239 255 263 283 302 313 341 338 359 46 57 57 49 57 63 30 39 46 75 85 128 143 122 114 107 106 104 98 86 80 71 84 91 92 66 51
330 321 295 277 252 232 223 222 233 236 248 257 256 348 351 5 51 70 74 70 72 72 6 48 80 90 93 115 124 116 113 109 107 103 99 93 79 76 78 77 94 89 67
327 321 315 301 274 248 227 211 213 215 219 220 200 179 117 148 152 144 165 128 116 106 91 63 75 80 74 69 71 74 85 109 109 101 97 96 89 83 84 78 83 98 70
303 301 310 317 315 287 251 217 212 204 201 209 197 181 180 206 201 188 158 57 58 97 125 105 81 61 82 82 72 67 62 70 99 119 116 119 130 138 127 122 106 80 71
294 294 308 320 323 320 258 236 229 211 202 204 195 190 184 210 213 184 105 88 79 65 63 90 115 100 74 98 90 72 61 62 71 90 100 110 111 134 121 103 100 107 92
289 291 300 315 318 320 285 246 233 207 210 202 192 187 186 202 202 169 131 118 96 70 63 71 100 105 75 99 100 92 82 70 70 72 72 71 70 62 69 121 105 112 76
279 288 290 288 289 296 293 261 218 207 212 210 191 189 186 189 182 164 142 136 116 104 84 70 83 101 94 104 116 114 102 78 86 78 61 52 49 50 48 53 77 93 78
262 278 276 268 262 262 264 257 232 218 219 216 200 183 182 177 171 162 153 143 138 135 123 112 99 99 98 95 97 103 112 110 92 86 77 67 59 54 48 50 57 76 79
268 278 275 263 256 253 254 269 258 229 219 210 205 180 184 171 175 173 159 143 145 141 142 129 112 97 95 96 97 102 103 96 92 88 85 73 67 65 60 64 66 68 67
268 274 278 277 271 256 243 241 263 250 220 201 194 182 182 173 176 177 164 143 138 138 137 128 118 101 92 82 86 97 101 98 94 92 92 84 69 60 68 66 60 63 72
258 263 272 271 272 271 258 236 223 239 212 203 189 187 179 174 174 167 157 137 131 132 125 118 107 90 89 97 89 82 86 96 104 104 109 105 83 71 69 63 57 45 44
252 256 259 257 267 271 265 254 229 201 214 192 195 197 179 183 184 168 160 159 154 145 134 127 123 120 125 122 110 106 103 107 107 115 119 108 95 93 78 63 72 65 65
259 261 255 248 254 259 262 268 236 213 220 211 252 241 197 179 164 165 165 152 143 140 138 148 151 157 161 156 146 133 122 123 124 130 129 123 116 114 103 76 77 90 89
239 250 244 234 237 248 249 248 271 243 228 257 250 219 189 174 162 161 157 148 148 150 155 164 168 171 174 170 164 158 153 145 144 147 140 137 131 123 117 114 122 131 115
247 238 226 223 227 230 234 235 241 274 275 237 195 176 176 172 154 143 136 133 149 171 173 173 176 178 179 177 176 169 158 156 159 159 148 147 148 143 141 140 147 141 121
234 215 211 213 225 224 235 238 220 229 238 215 121 117 121 126 136 142 150 158 173 182 180 178 178 180 184 186 184 177 171 169 170 169 165 163 168 165 156 155 139 124 121
213 198 193 202 223 227 233 238 236 249 273 214 166 156 140 134 139 153 176 174 177 181 179 181 180 181 183 186 183 176 174 175 177 181 177 176 178 181 170 164 167 160 154
205 198 196 205 214 218 221 231 240 247 242 188 172 163 163 161 164 169 179 181 180 179 177 181 186 184 184 184 181 180 184 186 188 191 188 186 183 184 179 170 174 180 173
214 207 207 198 209 215 216 213 235 262 216 171 172 164 168 165 165 172 179 183 184 184 180 181 188 187 185 184 182 185 190 192 192 195 194 193 195 189 178 178 184 187 189
196 210 213 197 213 218 217 228 263 244 177 169 158 155 170 169 170 177 181 183 182 182 177 178 185 186 186 187 186 186 188 193 193 193 194 195 199 198 187 188 192 192 201
230 229 225 219 224 219 213 234 258 201 162 159 157 161 172 174 173 177 177 178 181 178 170 171 183 184 184 189 193 196 196 191 189 193 195 197 201 199 196 198 203 206 209
235 237 234 225 217 211 215 245 243 178 163 157 155 159 167 171 166 165 169 170 172 171 171 171 176 183 187 194 200 201 192 183 188 188 194 204 209 204 202 204 205 210 212
238 236 232 220 205 198 217 246 211 166 161 154 151 155 159 162 161 161 163 166 171 170 170 174 180 187 193 200 205 202 190 185 190 190 196 204 211 211 208 209 209 211 212